owner,sensor,date,latitude,longitude,vertical_datum,sea_water_temperature,qcFlag
Helix,ioos:station:wmo:42388:1,2022-07-01T00:03:00Z,27.7297,-91.1086,17.7,29.3,11111222
Helix,ioos:station:wmo:42388:1,2022-07-01T00:13:00Z,27.7297,-91.1086,17.8,29.4,11111222
Helix,ioos:station:wmo:42388:1,2022-07-01T00:23:00Z,27.7297,-91.1086,17.7,29.6,11111222
Helix,ioos:station:wmo:42388:1,2022-07-01T00:33:00Z,27.7297,-91.1086,17.7,29.6,11111222
Helix,ioos:station:wmo:42388:1,2022-07-01T00:43:00Z,27.7297,-91.1086,17.8,29.8,11111222
Helix,ioos:station:wmo:42388:1,2022-07-01T00:53:00Z,27.7297,-91.1086,17.4,29.8,11111222
Helix,ioos:station:wmo:42388:1,2022-07-01T01:03:00Z,27.7297,-91.1086,17.6,29.9,11111222
Helix,ioos:station:wmo:42388:1,2022-07-01T01:13:00Z,27.7297,-91.1086,17.6,30.0,11111222
Helix,ioos:station:wmo:42388:1,2022-07-01T01:23:00Z,27.7297,-91.1086,17.6,29.9,11111222
Helix,ioos:station:wmo:42388:1,2022-07-01T01:33:00Z,27.7297,-91.1086,17.8,29.8,11111222
Helix,ioos:station:wmo:42388:1,2022-07-01T01:43:00Z,27.7297,-91.1086,17.9,29.9,11111222
Helix,ioos:station:wmo:42388:1,2022-07-01T01:53:00Z,27.7297,-91.1086,17.8,29.8,11111222
Helix,ioos:station:wmo:42388:1,2022-07-01T02:03:00Z,27.7297,-91.1086,17.7,29.9,11111222
Helix,ioos:station:wmo:42388:1,2022-07-01T02:13:00Z,27.7297,-91.1086,17.7,30.0,11111222
Helix,ioos:station:wmo:42388:1,2022-07-01T02:23:00Z,27.7297,-91.1086,17.5,30.0,11111222
Helix,ioos:station:wmo:42388:1,2022-07-01T02:33:00Z,27.7297,-91.1086,17.8,30.0,11111222
Helix,ioos:station:wmo:42388:1,2022-07-01T02:43:00Z,27.7297,-91.1086,17.8,30.0,11111222
Helix,ioos:station:wmo:42388:1,2022-07-01T02:53:00Z,27.7297,-91.1086,17.7,30.0,11111222
Helix,ioos:station:wmo:42388:1,2022-07-01T03:03:00Z,27.7297,-91.1086,17.7,30.0,11111222
Helix,ioos:station:wmo:42388:1,2022-07-01T03:13:00Z,27.7297,-91.1086,17.7,30.0,11111222
Helix,ioos:station:wmo:42388:1,2022-07-01T03:23:00Z,27.7297,-91.1086,17.6,30.0,11111222
Helix,ioos:station:wmo:42388:1,2022-07-01T03:33:00Z,27.7297,-91.1086,17.6,30.0,11111222
Helix,ioos:station:wmo:42388:1,2022-07-01T03:43:00Z,27.7297,-91.1086,17.6,30.0,11111222
Helix,ioos:station:wmo:42388:1,2022-07-01T03:53:00Z,27.7297,-91.1086,17.8,30.0,11111222
Helix,ioos:station:wmo:42388:1,2022-07-01T04:03:00Z,27.7297,-91.1086,17.7,30.0,11111222
Helix,ioos:station:wmo:42388:1,2022-07-01T04:13:00Z,27.7297,-91.1086,17.8,30.0,11111222
Helix,ioos:station:wmo:42388:1,2022-07-01T04:23:00Z,27.7297,-91.1086,17.6,30.0,11111222
Helix,ioos:station:wmo:42388:1,2022-07-01T04:33:00Z,27.7297,-91.1086,17.7,30.0,11111222
Helix,ioos:station:wmo:42388:1,2022-07-01T04:43:00Z,27.7297,-91.1086,17.7,30.0,11111222
Helix,ioos:station:wmo:42388:1,2022-07-01T04:53:00Z,27.7297,-91.1086,17.6,29.9,11111222
Helix,ioos:station:wmo:42388:1,2022-07-01T05:03:00Z,27.7297,-91.1086,17.6,29.9,11111222
Helix,ioos:station:wmo:42388:1,2022-07-01T05:13:00Z,27.7297,-91.1086,17.7,29.9,11111222
Helix,ioos:station:wmo:42388:1,2022-07-01T05:23:00Z,27.7297,-91.1086,17.4,29.8,11111222
Helix,ioos:station:wmo:42388:1,2022-07-01T05:33:00Z,27.7297,-91.1086,17.8,29.7,11111222
Helix,ioos:station:wmo:42388:1,2022-07-01T05:43:00Z,27.7297,-91.1086,17.6,29.7,11111222
Helix,ioos:station:wmo:42388:1,2022-07-01T05:53:00Z,27.7297,-91.1086,17.8,29.7,11111222
Helix,ioos:station:wmo:42388:1,2022-07-01T06:03:00Z,27.7297,-91.1086,17.7,29.5,11111222
Helix,ioos:station:wmo:42388:1,2022-07-01T06:13:00Z,27.7297,-91.1086,18.0,29.4,11111222
Helix,ioos:station:wmo:42388:1,2022-07-01T06:23:00Z,27.7297,-91.1086,17.7,29.2,11111222
Helix,ioos:station:wmo:42388:1,2022-07-01T06:33:00Z,27.7297,-91.1086,17.7,29.2,11111222
Helix,ioos:station:wmo:42388:1,2022-07-01T06:43:00Z,27.7297,-91.1086,18.0,29.1,11111222
Helix,ioos:station:wmo:42388:1,2022-07-01T06:53:00Z,27.7297,-91.1086,17.8,29.1,11111222
Helix,ioos:station:wmo:42388:1,2022-07-01T07:03:00Z,27.7297,-91.1086,18.0,29.0,11111222
Helix,ioos:station:wmo:42388:1,2022-07-01T07:13:00Z,27.7297,-91.1086,17.5,29.0,11111222
Helix,ioos:station:wmo:42388:1,2022-07-01T07:23:00Z,27.7297,-91.1086,17.8,29.0,11111222
Helix,ioos:station:wmo:42388:1,2022-07-01T07:33:00Z,27.7297,-91.1086,18.0,29.2,11111222
Helix,ioos:station:wmo:42388:1,2022-07-01T07:43:00Z,27.7297,-91.1086,17.9,29.3,11111222
Helix,ioos:station:wmo:42388:1,2022-07-01T07:53:00Z,27.7297,-91.1086,17.9,29.3,11111222
Helix,ioos:station:wmo:42388:1,2022-07-01T08:03:00Z,27.7297,-91.1086,17.7,29.3,11111222
Helix,ioos:station:wmo:42388:1,2022-07-01T08:13:00Z,27.7297,-91.1086,17.9,29.2,11111222
Helix,ioos:station:wmo:42388:1,2022-07-01T08:23:00Z,27.7297,-91.1086,17.7,29.2,11111222
Helix,ioos:station:wmo:42388:1,2022-07-01T08:33:00Z,27.7297,-91.1086,17.8,29.1,11111222
Helix,ioos:station:wmo:42388:1,2022-07-01T08:43:00Z,27.7297,-91.1086,17.8,29.3,11111222
Helix,ioos:station:wmo:42388:1,2022-07-01T08:53:00Z,27.7297,-91.1086,17.7,29.3,11111222
Helix,ioos:station:wmo:42388:1,2022-07-01T09:03:00Z,27.7297,-91.1086,17.9,29.4,11111222
Helix,ioos:station:wmo:42388:1,2022-07-01T09:13:00Z,27.7297,-91.1086,17.8,29.4,11111222
Helix,ioos:station:wmo:42388:1,2022-07-01T09:23:00Z,27.7297,-91.1086,17.7,29.2,11111222
Helix,ioos:station:wmo:42388:1,2022-07-01T09:33:00Z,27.7297,-91.1086,17.7,29.1,11111222
Helix,ioos:station:wmo:42388:1,2022-07-01T09:43:00Z,27.7297,-91.1086,17.9,29.3,11111222
Helix,ioos:station:wmo:42388:1,2022-07-01T09:53:00Z,27.7297,-91.1086,18.1,29.5,11111222
Helix,ioos:station:wmo:42388:1,2022-07-01T10:03:00Z,27.7297,-91.1086,17.8,29.4,11111222
Helix,ioos:station:wmo:42388:1,2022-07-01T10:13:00Z,27.7297,-91.1086,18.0,29.3,11111222
Helix,ioos:station:wmo:42388:1,2022-07-01T10:23:00Z,27.7297,-91.1086,17.6,29.4,11111222
Helix,ioos:station:wmo:42388:1,2022-07-01T10:33:00Z,27.7297,-91.1086,17.9,29.6,11111222
Helix,ioos:station:wmo:42388:1,2022-07-01T10:43:00Z,27.7297,-91.1086,18.0,29.6,11111222
Helix,ioos:station:wmo:42388:1,2022-07-01T10:53:00Z,27.7297,-91.1086,17.8,29.6,11111222
Helix,ioos:station:wmo:42388:1,2022-07-01T11:03:00Z,27.7297,-91.1086,17.9,29.6,11111222
Helix,ioos:station:wmo:42388:1,2022-07-01T11:13:00Z,27.7297,-91.1086,17.8,29.6,11111222
Helix,ioos:station:wmo:42388:1,2022-07-01T11:23:00Z,27.7297,-91.1086,18.1,29.5,11111222
Helix,ioos:station:wmo:42388:1,2022-07-01T11:33:00Z,27.7297,-91.1086,17.8,29.5,11111222
Helix,ioos:station:wmo:42388:1,2022-07-01T11:43:00Z,27.7297,-91.1086,18.1,29.5,11111222
Helix,ioos:station:wmo:42388:1,2022-07-01T11:53:00Z,27.7297,-91.1086,17.6,29.5,11111222
Helix,ioos:station:wmo:42388:1,2022-07-01T12:03:00Z,27.7297,-91.1086,17.9,29.5,11111222
Helix,ioos:station:wmo:42388:1,2022-07-01T12:13:00Z,27.7297,-91.1086,17.9,29.3,11111222
Helix,ioos:station:wmo:42388:1,2022-07-01T12:23:00Z,27.7297,-91.1086,18.1,29.4,11111222
Helix,ioos:station:wmo:42388:1,2022-07-01T12:33:00Z,27.7297,-91.1086,17.7,29.4,11111222
Helix,ioos:station:wmo:42388:1,2022-07-01T12:43:00Z,27.7297,-91.1086,17.9,29.4,11111222
Helix,ioos:station:wmo:42388:1,2022-07-01T12:53:00Z,27.7297,-91.1086,17.8,29.4,11111222
Helix,ioos:station:wmo:42388:1,2022-07-01T13:03:00Z,27.7297,-91.1086,17.7,29.3,11111222
Helix,ioos:station:wmo:42388:1,2022-07-01T13:13:00Z,27.7297,-91.1086,18.0,29.3,11111222
Helix,ioos:station:wmo:42388:1,2022-07-01T13:23:00Z,27.7297,-91.1086,17.8,29.3,11111222
Helix,ioos:station:wmo:42388:1,2022-07-01T13:33:00Z,27.7297,-91.1086,17.6,29.5,11111222
Helix,ioos:station:wmo:42388:1,2022-07-01T13:43:00Z,27.7297,-91.1086,17.7,29.8,11111222
Helix,ioos:station:wmo:42388:1,2022-07-01T13:53:00Z,27.7297,-91.1086,17.8,29.7,11111222
Helix,ioos:station:wmo:42388:1,2022-07-01T14:03:00Z,27.7297,-91.1086,17.9,29.5,11111222
Helix,ioos:station:wmo:42388:1,2022-07-01T14:13:00Z,27.7297,-91.1086,17.9,29.4,11111222
Helix,ioos:station:wmo:42388:1,2022-07-01T14:23:00Z,27.7297,-91.1086,17.7,29.2,11111222
Helix,ioos:station:wmo:42388:1,2022-07-01T14:33:00Z,27.7297,-91.1086,17.7,29.1,11111222
Helix,ioos:station:wmo:42388:1,2022-07-01T14:43:00Z,27.7297,-91.1086,17.7,29.2,11111222
Helix,ioos:station:wmo:42388:1,2022-07-01T14:53:00Z,27.7297,-91.1086,17.8,29.3,11111222
Helix,ioos:station:wmo:42388:1,2022-07-01T15:03:00Z,27.7297,-91.1086,17.9,29.2,11111222
Helix,ioos:station:wmo:42388:1,2022-07-01T15:13:00Z,27.7297,-91.1086,18.0,29.2,11111222
Helix,ioos:station:wmo:42388:1,2022-07-01T15:23:00Z,27.7297,-91.1086,18.1,29.2,11111222
Helix,ioos:station:wmo:42388:1,2022-07-01T15:33:00Z,27.7297,-91.1086,17.7,29.1,11111222
Helix,ioos:station:wmo:42388:1,2022-07-01T15:43:00Z,27.7297,-91.1086,17.3,29.1,11111222
Helix,ioos:station:wmo:42388:1,2022-07-01T15:53:00Z,27.7297,-91.1086,17.8,29.2,11111222
Helix,ioos:station:wmo:42388:1,2022-07-01T16:03:00Z,27.7297,-91.1086,17.9,29.2,11111222
Helix,ioos:station:wmo:42388:1,2022-07-01T16:13:00Z,27.7297,-91.1086,17.7,29.1,11111222
Helix,ioos:station:wmo:42388:1,2022-07-01T16:23:00Z,27.7297,-91.1086,18.1,29.2,11111222
Helix,ioos:station:wmo:42388:1,2022-07-01T16:33:00Z,27.7297,-91.1086,17.8,29.6,11111222
Helix,ioos:station:wmo:42388:1,2022-07-01T16:43:00Z,27.7297,-91.1086,17.7,29.8,11111222
Helix,ioos:station:wmo:42388:1,2022-07-01T16:54:00Z,27.7297,-91.1086,17.5,29.8,11111222
Helix,ioos:station:wmo:42388:1,2022-07-01T17:04:00Z,27.7297,-91.1086,17.8,29.8,11111222
Helix,ioos:station:wmo:42388:1,2022-07-01T17:14:00Z,27.7297,-91.1086,17.6,29.8,11111222
Helix,ioos:station:wmo:42388:1,2022-07-01T17:24:00Z,27.7297,-91.1086,17.5,29.7,11111222
Helix,ioos:station:wmo:42388:1,2022-07-01T17:34:00Z,27.7297,-91.1086,18.0,29.7,11111222
Helix,ioos:station:wmo:42388:1,2022-07-01T17:44:00Z,27.7297,-91.1086,17.7,29.8,11111222
Helix,ioos:station:wmo:42388:1,2022-07-01T17:54:00Z,27.7297,-91.1086,17.5,29.8,11111222
Helix,ioos:station:wmo:42388:1,2022-07-01T18:04:00Z,27.7297,-91.1086,17.7,29.9,11111222
Helix,ioos:station:wmo:42388:1,2022-07-01T18:14:00Z,27.7297,-91.1086,17.6,29.9,11111222
Helix,ioos:station:wmo:42388:1,2022-07-01T18:24:00Z,27.7297,-91.1086,17.8,29.8,11111222
Helix,ioos:station:wmo:42388:1,2022-07-01T18:34:00Z,27.7297,-91.1086,17.5,29.8,11111222
Helix,ioos:station:wmo:42388:1,2022-07-01T18:44:00Z,27.7297,-91.1086,17.6,29.8,11111222
Helix,ioos:station:wmo:42388:1,2022-07-01T18:54:00Z,27.7297,-91.1086,17.8,29.9,11111222
Helix,ioos:station:wmo:42388:1,2022-07-01T19:04:00Z,27.7297,-91.1086,17.7,29.9,11111222
Helix,ioos:station:wmo:42388:1,2022-07-01T19:14:00Z,27.7297,-91.1086,17.5,29.9,11111222
Helix,ioos:station:wmo:42388:1,2022-07-01T19:24:00Z,27.7297,-91.1086,17.7,29.9,11111222
Helix,ioos:station:wmo:42388:1,2022-07-01T19:34:00Z,27.7297,-91.1086,17.8,29.9,11111222
Helix,ioos:station:wmo:42388:1,2022-07-01T19:44:00Z,27.7297,-91.1086,17.5,29.9,11111222
Helix,ioos:station:wmo:42388:1,2022-07-01T19:54:00Z,27.7297,-91.1086,17.6,29.9,11111222
Helix,ioos:station:wmo:42388:1,2022-07-01T20:04:00Z,27.7297,-91.1086,17.6,29.9,11111222
Helix,ioos:station:wmo:42388:1,2022-07-01T20:14:00Z,27.7297,-91.1086,17.7,29.9,11111222
Helix,ioos:station:wmo:42388:1,2022-07-01T20:24:00Z,27.7297,-91.1086,17.5,29.9,11111222
Helix,ioos:station:wmo:42388:1,2022-07-01T20:34:00Z,27.7297,-91.1086,17.6,29.9,11111222
Helix,ioos:station:wmo:42388:1,2022-07-01T20:44:00Z,27.7297,-91.1086,17.8,29.8,11111222
Helix,ioos:station:wmo:42388:1,2022-07-01T20:54:00Z,27.7297,-91.1086,17.7,29.8,11111222
Helix,ioos:station:wmo:42388:1,2022-07-01T21:04:00Z,27.7297,-91.1086,17.5,29.7,11111222
Helix,ioos:station:wmo:42388:1,2022-07-01T21:14:00Z,27.7297,-91.1086,17.5,29.7,11111222
Helix,ioos:station:wmo:42388:1,2022-07-01T21:24:00Z,27.7297,-91.1086,18.0,29.6,11111222
Helix,ioos:station:wmo:42388:1,2022-07-01T21:34:00Z,27.7297,-91.1086,17.8,29.9,11111222
Helix,ioos:station:wmo:42388:1,2022-07-01T21:44:00Z,27.7297,-91.1086,17.6,29.8,11111222
Helix,ioos:station:wmo:42388:1,2022-07-01T21:54:00Z,27.7297,-91.1086,17.5,29.6,11111222
Helix,ioos:station:wmo:42388:1,2022-07-01T22:04:00Z,27.7297,-91.1086,17.6,29.5,11111222
Helix,ioos:station:wmo:42388:1,2022-07-01T22:14:00Z,27.7297,-91.1086,17.7,29.7,11111222
Helix,ioos:station:wmo:42388:1,2022-07-01T22:24:00Z,27.7297,-91.1086,18.0,29.4,11111222
Helix,ioos:station:wmo:42388:1,2022-07-01T22:34:00Z,27.7297,-91.1086,17.7,29.2,11111222
Helix,ioos:station:wmo:42388:1,2022-07-01T22:44:00Z,27.7297,-91.1086,17.7,29.2,11111222
Helix,ioos:station:wmo:42388:1,2022-07-01T22:54:00Z,27.7297,-91.1086,17.9,29.0,11111222
Helix,ioos:station:wmo:42388:1,2022-07-01T23:04:00Z,27.7297,-91.1086,17.8,28.7,11111222
Helix,ioos:station:wmo:42388:1,2022-07-01T23:14:00Z,27.7297,-91.1086,17.6,28.8,11111222
Helix,ioos:station:wmo:42388:1,2022-07-01T23:24:00Z,27.7297,-91.1086,17.9,28.8,11111222
Helix,ioos:station:wmo:42388:1,2022-07-01T23:34:00Z,27.7297,-91.1086,17.6,29.0,11111222
Helix,ioos:station:wmo:42388:1,2022-07-01T23:44:00Z,27.7297,-91.1086,18.0,29.3,11111222
Helix,ioos:station:wmo:42388:1,2022-07-01T23:54:00Z,27.7297,-91.1086,17.6,29.1,11111222
Helix,ioos:station:wmo:42388:1,2022-07-02T00:04:00Z,27.7297,-91.1086,17.6,29.4,11111222
Helix,ioos:station:wmo:42388:1,2022-07-02T00:14:00Z,27.7297,-91.1086,17.8,29.3,11111222
Helix,ioos:station:wmo:42388:1,2022-07-02T00:24:00Z,27.7297,-91.1086,18.0,29.4,11111222
Helix,ioos:station:wmo:42388:1,2022-07-02T00:34:00Z,27.7297,-91.1086,17.8,29.2,11111222
Helix,ioos:station:wmo:42388:1,2022-07-02T00:44:00Z,27.7297,-91.1086,17.9,29.5,11111222
Helix,ioos:station:wmo:42388:1,2022-07-02T00:54:00Z,27.7297,-91.1086,17.4,29.5,11111222
Helix,ioos:station:wmo:42388:1,2022-07-02T01:04:00Z,27.7297,-91.1086,17.8,29.6,11111222
Helix,ioos:station:wmo:42388:1,2022-07-02T01:14:00Z,27.7297,-91.1086,17.8,29.6,11111222
Helix,ioos:station:wmo:42388:1,2022-07-02T01:24:00Z,27.7297,-91.1086,17.8,29.3,11111222
Helix,ioos:station:wmo:42388:1,2022-07-02T01:34:00Z,27.7297,-91.1086,17.9,29.2,11111222
Helix,ioos:station:wmo:42388:1,2022-07-02T01:44:00Z,27.7297,-91.1086,17.7,29.2,11111222
Helix,ioos:station:wmo:42388:1,2022-07-02T01:54:00Z,27.7297,-91.1086,17.6,28.9,11111222
Helix,ioos:station:wmo:42388:1,2022-07-02T02:04:00Z,27.7297,-91.1086,17.8,28.9,11111222
Helix,ioos:station:wmo:42388:1,2022-07-02T02:14:00Z,27.7297,-91.1086,17.9,29.1,11111222
Helix,ioos:station:wmo:42388:1,2022-07-02T02:24:00Z,27.7297,-91.1086,17.6,29.4,11111222
Helix,ioos:station:wmo:42388:1,2022-07-02T02:34:00Z,27.7297,-91.1086,17.6,29.7,11111222
Helix,ioos:station:wmo:42388:1,2022-07-02T02:44:00Z,27.7297,-91.1086,17.8,29.6,11111222
Helix,ioos:station:wmo:42388:1,2022-07-02T02:54:00Z,27.7297,-91.1086,17.6,29.7,11111222
Helix,ioos:station:wmo:42388:1,2022-07-02T03:04:00Z,27.7297,-91.1086,17.8,29.6,11111222
Helix,ioos:station:wmo:42388:1,2022-07-02T03:14:00Z,27.7297,-91.1086,17.8,29.6,11111222
Helix,ioos:station:wmo:42388:1,2022-07-02T03:24:00Z,27.7297,-91.1086,17.9,29.8,11111222
Helix,ioos:station:wmo:42388:1,2022-07-02T03:34:00Z,27.7297,-91.1086,17.8,29.8,11111222
Helix,ioos:station:wmo:42388:1,2022-07-02T03:44:00Z,27.7297,-91.1086,17.8,29.8,11111222
Helix,ioos:station:wmo:42388:1,2022-07-02T03:54:00Z,27.7297,-91.1086,17.9,29.9,11111222
Helix,ioos:station:wmo:42388:1,2022-07-02T04:04:00Z,27.7297,-91.1086,17.7,29.9,11111222
Helix,ioos:station:wmo:42388:1,2022-07-02T04:14:00Z,27.7297,-91.1086,17.7,29.9,11111222
Helix,ioos:station:wmo:42388:1,2022-07-02T04:24:00Z,27.7297,-91.1086,17.8,29.9,11111222
Helix,ioos:station:wmo:42388:1,2022-07-02T04:34:00Z,27.7297,-91.1086,17.6,29.9,11111222
Helix,ioos:station:wmo:42388:1,2022-07-02T04:44:00Z,27.7297,-91.1086,17.8,29.9,11111222
Helix,ioos:station:wmo:42388:1,2022-07-02T04:54:00Z,27.7297,-91.1086,17.7,29.9,11111222
Helix,ioos:station:wmo:42388:1,2022-07-02T05:04:00Z,27.7297,-91.1086,17.6,29.6,11111222
Helix,ioos:station:wmo:42388:1,2022-07-02T05:14:00Z,27.7297,-91.1086,17.7,29.6,11111222
Helix,ioos:station:wmo:42388:1,2022-07-02T05:24:00Z,27.7297,-91.1086,17.8,29.6,11111222
Helix,ioos:station:wmo:42388:1,2022-07-02T05:34:00Z,27.7297,-91.1086,17.7,29.8,11111222
Helix,ioos:station:wmo:42388:1,2022-07-02T05:44:00Z,27.7297,-91.1086,17.5,29.8,11111222
Helix,ioos:station:wmo:42388:1,2022-07-02T05:54:00Z,27.7297,-91.1086,17.6,29.7,11111222
Helix,ioos:station:wmo:42388:1,2022-07-02T06:04:00Z,27.7297,-91.1086,17.7,29.5,11111222
Helix,ioos:station:wmo:42388:1,2022-07-02T06:14:00Z,27.7297,-91.1086,17.7,29.4,11111222
Helix,ioos:station:wmo:42388:1,2022-07-02T06:24:00Z,27.7297,-91.1086,17.7,29.4,11111222
Helix,ioos:station:wmo:42388:1,2022-07-02T06:34:00Z,27.7297,-91.1086,17.8,29.0,11111222
Helix,ioos:station:wmo:42388:1,2022-07-02T06:44:00Z,27.7297,-91.1086,17.7,29.0,11111222
Helix,ioos:station:wmo:42388:1,2022-07-02T06:54:00Z,27.7297,-91.1086,17.8,29.2,11111222
Helix,ioos:station:wmo:42388:1,2022-07-02T07:04:00Z,27.7297,-91.1086,17.8,29.2,11111222
Helix,ioos:station:wmo:42388:1,2022-07-02T07:14:00Z,27.7297,-91.1086,18.2,29.3,11111222
Helix,ioos:station:wmo:42388:1,2022-07-02T07:24:00Z,27.7297,-91.1086,17.9,29.4,11111222
Helix,ioos:station:wmo:42388:1,2022-07-02T07:34:00Z,27.7297,-91.1086,17.9,29.5,11111222
Helix,ioos:station:wmo:42388:1,2022-07-02T07:44:00Z,27.7297,-91.1086,17.9,29.6,11111222
Helix,ioos:station:wmo:42388:1,2022-07-02T07:54:00Z,27.7297,-91.1086,17.6,29.6,11111222
Helix,ioos:station:wmo:42388:1,2022-07-02T08:04:00Z,27.7297,-91.1086,17.8,29.5,11111222
Helix,ioos:station:wmo:42388:1,2022-07-02T08:14:00Z,27.7297,-91.1086,17.6,29.6,11111222
Helix,ioos:station:wmo:42388:1,2022-07-02T08:24:00Z,27.7297,-91.1086,17.8,29.6,11111222
Helix,ioos:station:wmo:42388:1,2022-07-02T08:34:00Z,27.7297,-91.1086,17.8,29.6,11111222
Helix,ioos:station:wmo:42388:1,2022-07-02T08:44:00Z,27.7297,-91.1086,17.9,29.6,11111222
Helix,ioos:station:wmo:42388:1,2022-07-02T08:54:00Z,27.7297,-91.1086,17.9,29.6,11111222
Helix,ioos:station:wmo:42388:1,2022-07-02T09:04:00Z,27.7297,-91.1086,17.6,29.6,11111222
Helix,ioos:station:wmo:42388:1,2022-07-02T09:14:00Z,27.7297,-91.1086,17.8,29.6,11111222
Helix,ioos:station:wmo:42388:1,2022-07-02T09:24:00Z,27.7297,-91.1086,17.9,29.5,11111222
Helix,ioos:station:wmo:42388:1,2022-07-02T09:34:00Z,27.7297,-91.1086,17.9,29.5,11111222
Helix,ioos:station:wmo:42388:1,2022-07-02T09:44:00Z,27.7297,-91.1086,17.8,29.5,11111222
Helix,ioos:station:wmo:42388:1,2022-07-02T09:54:00Z,27.7297,-91.1086,17.9,29.5,11111222
Helix,ioos:station:wmo:42388:1,2022-07-02T10:04:00Z,27.7297,-91.1086,17.7,29.5,11111222
Helix,ioos:station:wmo:42388:1,2022-07-02T10:14:00Z,27.7297,-91.1086,17.9,29.3,11111222
Helix,ioos:station:wmo:42388:1,2022-07-02T10:25:00Z,27.7297,-91.1086,17.7,29.3,11111222
Helix,ioos:station:wmo:42388:1,2022-07-02T10:35:00Z,27.7297,-91.1086,17.7,29.1,11111222
Helix,ioos:station:wmo:42388:1,2022-07-02T10:45:00Z,27.7297,-91.1086,17.8,29.0,11111222
Helix,ioos:station:wmo:42388:1,2022-07-02T10:55:00Z,27.7297,-91.1086,17.7,28.9,11111222
Helix,ioos:station:wmo:42388:1,2022-07-02T11:05:00Z,27.7297,-91.1086,17.7,28.9,11111222
Helix,ioos:station:wmo:42388:1,2022-07-02T11:15:00Z,27.7297,-91.1086,17.7,28.9,11111222
Helix,ioos:station:wmo:42388:1,2022-07-02T11:25:00Z,27.7297,-91.1086,17.7,29.1,11111222
Helix,ioos:station:wmo:42388:1,2022-07-02T11:35:00Z,27.7297,-91.1086,17.9,29.0,11111222
Helix,ioos:station:wmo:42388:1,2022-07-02T11:45:00Z,27.7297,-91.1086,17.9,29.2,11111222
Helix,ioos:station:wmo:42388:1,2022-07-02T11:55:00Z,27.7297,-91.1086,17.9,29.0,11111222
Helix,ioos:station:wmo:42388:1,2022-07-02T12:05:00Z,27.7297,-91.1086,17.7,29.1,11111222
Helix,ioos:station:wmo:42388:1,2022-07-02T12:15:00Z,27.7297,-91.1086,17.9,29.3,11111222
Helix,ioos:station:wmo:42388:1,2022-07-02T12:25:00Z,27.7297,-91.1086,17.9,29.2,11111222
Helix,ioos:station:wmo:42388:1,2022-07-02T12:35:00Z,27.7297,-91.1086,17.7,29.2,11111222
Helix,ioos:station:wmo:42388:1,2022-07-02T12:45:00Z,27.7297,-91.1086,17.8,29.3,11111222
Helix,ioos:station:wmo:42388:1,2022-07-02T12:55:00Z,27.7297,-91.1086,18.0,29.4,11111222
Helix,ioos:station:wmo:42388:1,2022-07-02T13:05:00Z,27.7297,-91.1086,17.7,29.4,11111222
Helix,ioos:station:wmo:42388:1,2022-07-02T13:15:00Z,27.7297,-91.1086,17.7,29.5,11111222
Helix,ioos:station:wmo:42388:1,2022-07-02T13:25:00Z,27.7297,-91.1086,17.8,29.5,11111222
Helix,ioos:station:wmo:42388:1,2022-07-02T13:35:00Z,27.7297,-91.1086,17.6,29.4,11111222
Helix,ioos:station:wmo:42388:1,2022-07-02T13:45:00Z,27.7297,-91.1086,17.9,29.4,11111222
Helix,ioos:station:wmo:42388:1,2022-07-02T13:55:00Z,27.7297,-91.1086,17.8,29.4,11111222
Helix,ioos:station:wmo:42388:1,2022-07-02T14:05:00Z,27.7297,-91.1086,17.6,29.4,11111222
Helix,ioos:station:wmo:42388:1,2022-07-02T14:15:00Z,27.7297,-91.1086,18.0,29.4,11111222
Helix,ioos:station:wmo:42388:1,2022-07-02T14:25:00Z,27.7297,-91.1086,17.8,29.4,11111222
Helix,ioos:station:wmo:42388:1,2022-07-02T14:35:00Z,27.7297,-91.1086,17.8,29.4,11111222
Helix,ioos:station:wmo:42388:1,2022-07-02T14:45:00Z,27.7297,-91.1086,17.4,29.4,11111222
Helix,ioos:station:wmo:42388:1,2022-07-02T14:55:00Z,27.7297,-91.1086,18.0,29.5,11111222
Helix,ioos:station:wmo:42388:1,2022-07-02T15:05:00Z,27.7297,-91.1086,17.8,29.6,11111222
Helix,ioos:station:wmo:42388:1,2022-07-02T15:15:00Z,27.7297,-91.1086,17.7,29.6,11111222
Helix,ioos:station:wmo:42388:1,2022-07-02T15:25:00Z,27.7297,-91.1086,17.4,29.7,11111222
Helix,ioos:station:wmo:42388:1,2022-07-02T15:35:00Z,27.7297,-91.1086,18.1,29.6,11111222
Helix,ioos:station:wmo:42388:1,2022-07-02T15:45:00Z,27.7297,-91.1086,17.8,29.6,11111222
Helix,ioos:station:wmo:42388:1,2022-07-02T15:55:00Z,27.7297,-91.1086,17.9,29.5,11111222
Helix,ioos:station:wmo:42388:1,2022-07-02T16:05:00Z,27.7297,-91.1086,17.7,29.5,11111222
Helix,ioos:station:wmo:42388:1,2022-07-02T16:15:00Z,27.7297,-91.1086,17.7,29.6,11111222
Helix,ioos:station:wmo:42388:1,2022-07-02T16:25:00Z,27.7297,-91.1086,17.8,29.7,11111222
Helix,ioos:station:wmo:42388:1,2022-07-02T16:35:00Z,27.7297,-91.1086,17.5,29.7,11111222
Helix,ioos:station:wmo:42388:1,2022-07-02T16:45:00Z,27.7297,-91.1086,17.6,29.8,11111222
Helix,ioos:station:wmo:42388:1,2022-07-02T16:55:00Z,27.7297,-91.1086,17.6,29.8,11111222
Helix,ioos:station:wmo:42388:1,2022-07-02T17:05:00Z,27.7297,-91.1086,17.7,29.8,11111222
Helix,ioos:station:wmo:42388:1,2022-07-02T17:15:00Z,27.7297,-91.1086,17.8,29.8,11111222
Helix,ioos:station:wmo:42388:1,2022-07-02T17:25:00Z,27.7297,-91.1086,17.6,29.8,11111222
Helix,ioos:station:wmo:42388:1,2022-07-02T17:35:00Z,27.7297,-91.1086,17.4,29.7,11111222
Helix,ioos:station:wmo:42388:1,2022-07-02T17:45:00Z,27.7297,-91.1086,17.8,29.7,11111222
Helix,ioos:station:wmo:42388:1,2022-07-02T17:55:00Z,27.7297,-91.1086,17.8,29.8,11111222
Helix,ioos:station:wmo:42388:1,2022-07-02T18:05:00Z,27.7297,-91.1086,17.7,29.8,11111222
Helix,ioos:station:wmo:42388:1,2022-07-02T18:15:00Z,27.7297,-91.1086,17.7,29.7,11111222
Helix,ioos:station:wmo:42388:1,2022-07-02T18:25:00Z,27.7297,-91.1086,18.0,29.6,11111222
Helix,ioos:station:wmo:42388:1,2022-07-02T18:35:00Z,27.7297,-91.1086,17.8,29.6,11111222
Helix,ioos:station:wmo:42388:1,2022-07-02T18:45:00Z,27.7297,-91.1086,17.7,29.7,11111222
Helix,ioos:station:wmo:42388:1,2022-07-02T18:55:00Z,27.7297,-91.1086,17.8,29.7,11111222
Helix,ioos:station:wmo:42388:1,2022-07-02T19:05:00Z,27.7297,-91.1086,17.7,29.8,11111222
Helix,ioos:station:wmo:42388:1,2022-07-02T19:15:00Z,27.7297,-91.1086,17.9,29.8,11111222
Helix,ioos:station:wmo:42388:1,2022-07-02T19:25:00Z,27.7297,-91.1086,17.6,29.8,11111222
Helix,ioos:station:wmo:42388:1,2022-07-02T19:35:00Z,27.7297,-91.1086,17.6,29.8,11111222
Helix,ioos:station:wmo:42388:1,2022-07-02T19:45:00Z,27.7297,-91.1086,17.5,29.8,11111222
Helix,ioos:station:wmo:42388:1,2022-07-02T19:55:00Z,27.7297,-91.1086,17.9,29.9,11111222
Helix,ioos:station:wmo:42388:1,2022-07-02T20:05:00Z,27.7297,-91.1086,17.7,29.9,11111222
Helix,ioos:station:wmo:42388:1,2022-07-02T20:15:00Z,27.7297,-91.1086,17.6,29.9,11111222
Helix,ioos:station:wmo:42388:1,2022-07-02T20:25:00Z,27.7297,-91.1086,17.7,29.9,11111222
Helix,ioos:station:wmo:42388:1,2022-07-02T20:35:00Z,27.7297,-91.1086,17.7,29.9,11111222